User: anonymous   Login
Location: Unspecified
(0.0000°N, 0.0000°E)
Time: 04:36:31
(UTC+00:00)
Language:

AOBA-VELOX 3 - Orbit

View from above orbital plane
View from above orbital plane
View from above satellite
View from above satellite

Ground track
Ground track

The orbit data is extracted from the following two-line orbital elements,

1 41935U 98067KX  17324.45671743  .00025666  00000-0  24432-3 0  9999
2 41935  51.6385 326.2901 0004348 107.8551 252.2919 15.66639245 48077
Epoch (UTC): 20 November 2017 10:57:40
Eccentricity: 0.0004348
inclination: 51.6385°
perigee height: 365 km
apogee height: 371 km
right ascension of ascending node: 326.2901°
argument of perigee: 107.8551°
revolutions per day: 15.66639245
mean anomaly at epoch: 252.2919°
orbit number at epoch: 4807

The dashed part of the orbit path shows where the satellite is in the earth's shadow,  

DLR